This is the latest recevied weather packets stored in our database for station/object W1HVD. If no packets are shown the sender has not sent any weather packets the latest 10 day(s).
| Time | Temp. | Humidity | Pressure | Rain* | Wind** | Luminosity | Snow |
|---|---|---|---|---|---|---|---|
| 1777243912 | 13.33° C | 45% | 1020.5 hPa | 0 mm | - | 25 W/m² | - |
| 1777243608 | 13.33° C | 45% | 1020.7 hPa | 0 mm | - | 27 W/m² | - |
| 1777243304 | 13.33° C | 44% | 1020.7 hPa | 0 mm | - | 29 W/m² | - |
| 1777243000 | 13.89° C | 43% | 1020.6 hPa | 0 mm | - | 31 W/m² | - |
| 1777242698 | 13.89° C | 42% | 1020.6 hPa | 0 mm | - | 33 W/m² | - |
| 1777242393 | 13.89° C | 43% | 1020.6 hPa | 0 mm | - | 37 W/m² | - |
| 1777242090 | 14.44° C | 42% | 1020.5 hPa | 0 mm | - | 49 W/m² | - |
| 1777241787 | 14.44° C | 42% | 1020.5 hPa | 0 mm | - | 65 W/m² | - |
| 1777241485 | 15° C | 42% | 1020.5 hPa | 0 mm | - | 67 W/m² | - |
| 1777241182 | 15.56° C | 39% | 1020.5 hPa | 0 mm | - | 74 W/m² | - |
| 1777240880 | 15.56° C | 39% | 1020.4 hPa | 0 mm | - | 105 W/m² | - |
| 1777240578 | 15.56° C | 40% | 1020.7 hPa | 0 mm | - | 117 W/m² | - |
| 1777240275 | 15.56° C | 40% | 1020.2 hPa | 0 mm | - | 126 W/m² | - |
| 1777239972 | 15.56° C | 40% | 1020.4 hPa | 0 mm | - | 138 W/m² | - |
| 1777239669 | 15.56° C | 40% | 1020.6 hPa | 0 mm | - | 143 W/m² | - |
| 1777239366 | 16.11° C | 40% | 1020.6 hPa | 0 mm | - | 164 W/m² | - |
| 1777239063 | 16.11° C | 39% | 1020.6 hPa | 0 mm | - | 177 W/m² | - |
| 1777238760 | 15.56° C | 40% | 1020.4 hPa | 0 mm | - | 192 W/m² | - |
| 1777238456 | 15.56° C | 40% | 1020.4 hPa | 0 mm | - | 206 W/m² | - |
| 1777238153 | 15.56° C | 39% | 1020.3 hPa | 0 mm | - | 221 W/m² | - |
| 1777237850 | 15.56° C | 41% | 1020.4 hPa | 0 mm | - | 236 W/m² | - |
| 1777237547 | 15.56° C | 40% | 1020.2 hPa | 0 mm | - | 250 W/m² | - |
| 1777237244 | 15° C | 40% | 1020.4 hPa | 0 mm | - | 267 W/m² | - |
| 1777236941 | 15.56° C | 39% | 1020.2 hPa | 0 mm | - | 282 W/m² | - |
| 1777236638 | 15.56° C | 41% | 1020.1 hPa | 0 mm | - | 293 W/m² | - |
* Rain latest hour (hover to see other rain measurements)
** Current wind speed in m/s (hover to see current wind gust speed)